Regional Weather Roundup
Issued by NWS

Home | Current Version | Previous Version | Graphics & Text | Print | Product List | Glossary Off
Versions: 1 2 3 4 5 6 7 8 9 10 11 12 13 14 15 16 17 18 19 20 21 22 23 24 25 26 27 28 29 30 31 32 33 34 35 36 37 38 39 40 41 42 43 44 45 46 47 48 49 50

000
ASUS43 KMKX 221300
RWRWI

WISCONSIN REGIONAL WEATHER ROUNDUP
NATIONAL WEATHER SERVICE MILWAUKEE/SULLIVAN WI
800 AM CDT THU JUN 22 2017

NOTE: "FAIR" INDICATES FEW OR NO CLOUDS BELOW 12,000 FEET WITH NO
SIGNIFICANT WEATHER AND/OR OBSTRUCTIONS TO VISIBILITY.

WIZ001-002-006>008-014>016-023>028-221400-
NORTHWEST WISCONSIN

CITY           SKY/WX    TMP DP  RH WIND       PRES   REMARKS
SUPERIOR ARPT  NOT AVBL
ASHLAND        CLOUDY    66  60  81 W8        29.70R
HAYWARD        PTSUNNY   66  60  81 SW5       29.72F
SIREN          CLOUDY    66  63  88 CALM      29.71F
CUMBERLAND     LGT RAIN  63  61  94 CALM      29.71F
RICE LAKE      RAIN      64  61  92 CALM      29.73F
CHETEK           N/A     64  62  93 NE7       29.73F
LADYSMITH      CLOUDY    64  61  90 CALM      29.75F
EAU CLAIRE     CLOUDY    67  63  87 CALM      29.72R
MENOMONIE      LGT RAIN  67  64  90 CALM      29.74R
NEW RICHMOND   LGT RAIN  65  63  93 NW6       29.75R
OSCEOLA        LGT RAIN  65  65 100 N3        29.75R
$$

WIZ003>005-009-010-017-018-221400-
NORTH CENTRAL WISCONSIN

CITY           SKY/WX    TMP DP  RH WIND       PRES   REMARKS
MANITOWISH WTR CLOUDY    64  63  97 SW6       29.72S
ARBOR VITAE    CLOUDY    64  61  89 S7        29.73R
WOODRUFF       CLOUDY    64  61  89 S7        29.73R
RHINELANDER    CLOUDY    65  63  93 SW8       29.74S
EAGLE RIVER    CLOUDY    64  58  82 SW7       29.73S
LAND O LAKES   PTSUNNY   65  60  81 CALM      29.74S
PHILLIPS       CLOUDY    63  61  95 SW5       29.74R
TOMAHAWK       NOT AVBL
MEDFORD        CLOUDY    66  63  91 SW5       29.74S
MERRILL        PTSUNNY   67  64  91 W6        29.74S
$$

WIZ029-030-035-036-043>047-221400-
CENTRAL WISCONSIN

CITY           SKY/WX    TMP DP  RH WIND       PRES   REMARKS
WAUSAU         PTSUNNY   68  64  87 VRB3      29.72R
MOSINEE        NOT AVBL
MARSHFIELD     CLOUDY    69  65  86 SW7       29.73R
STEVENS POINT  CLOUDY    65  65 100 SW7       29.74S
WAUPACA        LGT RAIN  70  69  97 SW6       29.74R
WAUTOMA        CLOUDY    69  67  93 SW6       29.76R
WISC RAPIDS    LGT RAIN  71  69  93 SW7       29.75S
CAMP DOUGLAS   NOT AVBL
$$

WIZ011>013-019>022-031-037>040-048>050-221400-
NORTHEAST WISCONSIN

CITY           SKY/WX    TMP DP  RH WIND       PRES   REMARKS
ANTIGO         CLOUDY    64  62  94 SW3       29.74F
SHAWANO        CLOUDY    68  64  85 W5        29.72S
OCONTO         PTSUNNY   67  63  86 SW6       29.71F
STURGEON BAY     N/A     69  65  86 SW9         N/A
GREEN BAY      CLOUDY    70  68  93 SW9       29.73F
MANITOWOC      NOT AVBL
APPLETON       PTSUNNY   70  66  88 SW12      29.73F
CLINTONVILLE   CLOUDY    66  63  88 SW6       29.72F
OSHKOSH        LGT RAIN  70  66  87 SW8       29.76R
$$

WIZ032>034-041-042-053>061-221400-
SOUTHWEST WISCONSIN

CITY           SKY/WX    TMP DP  RH WIND       PRES   REMARKS
LA CROSSE      CLOUDY    74  68  81 S7        29.69F
SPARTA         CLOUDY    68  67  96 CALM      29.73F
VIROQUA        CLOUDY    71  65  83 SW15      29.73F
BOSCOBEL       CLOUDY    70  65  84 S6        29.72F
PRAIRIE DU CHI DRIZZLE   71  61  72 S12G23    29.74S
PLATTEVILLE    CLOUDY    72  67  83 SW7       29.80R
$$

WIZ056-057-062-063-064-067-068-221400-
SOUTH CENTRAL WISCONSIN

CITY           SKY/WX    TMP DP  RH WIND       PRES   REMARKS
REEDSBURG      CLOUDY    68  68 100 CALM      29.74F
BARABOO/DELLS  CLOUDY    68  66  93 S3        29.76S
LONE ROCK      NOT AVBL
MINERAL POINT  RAIN      72  68  88 S15       29.77F
MADISON        LGT RAIN  71  67  87 S8        29.74F
MIDDLETON      CLOUDY    72  67  85 SW10G16   29.76F
WATERTOWN      CLOUDY    67  67 100 E3        29.80F
MONROE         PTSUNNY   73  63  68 S14G21    29.80F
JANESVILLE     PTSUNNY   75  66  73 SW15G21   29.80F
$$

WIZ051-052-058>065-066-070>072-221400-
SOUTHEAST WISCONSIN

CITY           SKY/WX    TMP DP  RH WIND       PRES   REMARKS
MILWAUKEE      CLOUDY    75  67  76 SW6       29.81F
WAUKESHA       PTSUNNY   70  64  83 SE6       29.83F
MILWAUKEE/TIMM MOSUNNY   72  64  78 S3        29.82F
RACINE         CLOUDY    77  65  66 W10       29.83F
KENOSHA        PTSUNNY   76  66  71 SW15G24   29.83F
FOND DU LAC    CLOUDY    71  66  84 S8        29.77F
SHEBOYGAN      LGT RAIN  70  68  93 SW17      29.75F
WEST BEND      LGT RAIN  68  68 100 SW7       29.81R
JUNEAU         DRIZZLE   66  65  96 CALM      29.81F
$$

LSZ147-162-221400-
LAKE SUPERIOR

STATION/POSITION TIME  TEMP    WIND        PRES    WAVE
                       AIR SEA DIR/SP/G            HT/PER
                 (UTC) (F)     (DEG/KT/KT) (MB)    (FT/S)
W MID LAKE BUOY  1150   46 39  250/ 10/ 12 1004.1R   1
DEVILS ISLAND    1200   50     230/ 12/ 13 1005.3R
SAXON HARBOR     1240   69     220/  7/ 11 1005.4R
$$

LMZ867-665-643>646-221400-
LAKE MICHIGAN

STATION/POSITION TIME  TEMP    WIND        PRES    WAVE
                       AIR SEA DIR/SP/G            HT/PER
                 (UTC) (F)     (DEG/KT/KT) (MB)    (FT/S)
CHAMBERS ISLAND  1240   66     190/  4/  7 1006.1S
N MID LAKE BUOY  1150   58 55  180/ 14/ 17 1007.7R   2/ 4
NORTHPORT PIER   1240   62     160/  5/  9 1006.8S
KEWAUNEE LAKESHO 1230   59     190/  9/ 10 1006.8F
SHEBOYGAN LAKESH 1200   60     190/  3/  4 1008.5F
PORT WASHINGTON  1240   70     210/  4/  9 1009.8F
ATWATER BUOY     1109   69 55  250/  8/ 12 1009.6
MILWAUKEE LAKESH 1230   74     260/  6/  7   N/A
S MID LAKE BUOY  1150   66 60  230/ 10/ 12 1010.6R   2/ 4
KENOSHA   LAKESH 1200   77     240/ 12/ 17 1010.5
$$

TC  - TEMPERATURE IN CELSIUS
VSB - VISIBILITY IN STATUTE MILES
WCI - WIND CHILL INDEX
HX  - HEAT INDEX





USA.gov is the U.S. government's official web portal to all federal, state and local government web resources and services.